DW8024 Weather Reports


time (UTC)temp
F
wind
direction
speed
knots
gust
knots
rain 1hr
in
rain 24hr
in
rain mn
in
humidity
%
barometer
mb
20260505102004 52 283 4.3 7.0 0.00 0.00 0.00 70 1014.2
20260505101508 52 284 4.3 7.8 0.00 0.00 0.00 70 1014.2
20260505101004 52 287 4.3 7.8 0.00 0.00 0.00 71 1014.1
20260505100506 52 291 3.5 7.0 0.00 0.00 0.00 72 1014.2
20260505100008 52 286 3.5 7.0 0.00 0.00 0.00 73 1014.1
20260505094507 52 296 4.3 7.0 0.00 0.00 0.00 71 1014.2
20260505093504 52 298 3.5 8.7 0.00 0.00 0.00 68 1014.2
20260505093007 53 300 3.5 8.7 0.00 0.00 0.00 67 1014.2
20260505092005 53 315 3.5 10.4 0.00 0.00 0.00 66 1014.2
20260505091508 53 326 3.5 9.6 0.00 0.00 0.00 66 1014.2
20260505090505 53 355 4.3 10.4 0.00 0.00 0.00 65 1014.2
20260505090008 53 348 3.5 8.7 0.00 0.00 0.00 66 1014.2
20260505085505 53 335 3.5 8.7 0.00 0.00 0.00 67 1014.2
20260505085004 53 346 5.2 13.9 0.00 0.00 0.00 66 1014.2
20260505084507 53 344 5.2 13.9 0.00 0.00 0.00 68 1014.2
20260505083504 52 319 6.1 11.3 0.00 0.00 0.00 67 1014.3
20260505083007 52 317 5.2 11.3 0.00 0.00 0.00 68 1014.2
20260505082505 52 308 6.1 11.3 0.00 0.00 0.00 72 1014.3
20260505082004 52 316 5.2 11.3 0.00 0.00 0.00 73 1014.3
20260505081507 52 349 3.5 9.6 0.00 0.00 0.00 76 1014.3
20260505081005 51 346 3.5 8.7 0.00 0.00 0.00 79 1014.3
20260505080505 50 340 3.5 7.8 0.00 0.00 0.00 81 1014.3
20260505080007 49 344 3.5 8.7 0.00 0.00 0.00 83 1014.5
20260505075506 49 358 2.6 8.7 0.00 0.00 0.00 84 1014.4
20260505075004 48 25 1.7 3.5 0.00 0.00 0.00 86 1014.3
20260505074507 48 3 1.7 4.3 0.00 0.00 0.00 87 1014.4
20260505074005 47 327 1.7 4.3 0.00 0.00 0.00 88 1014.4
20260505073008 47 19 0.9 3.5 0.00 0.00 0.00 89 1014.4
20260505072505 46 13 0.9 3.5 0.00 0.00 0.00 90 1014.5
20260505072004 46 323 0.9 3.5 0.00 0.00 0.00 90 1014.4
20260505071004 45 352 0.9 3.5 0.00 0.00 0.00 90 1014.6
20260505070505 45 326 1.7 4.3 0.00 0.00 0.00 90 1014.6
20260505070007 45 314 0.9 4.3 0.00 0.00 0.00 90 1014.6
20260505065505 44 344 0.9 2.6 0.00 0.00 0.00 90 1014.7
20260505065005 44 332 1.7 3.5 0.00 0.00 0.00 90 1014.7
20260505064507 44 326 1.7 3.5 0.00 0.00 0.00 90 1014.7
20260505064007 44 327 1.7 2.6 0.00 0.00 0.00 90 1014.7
20260505063504 43 338 1.7 2.6 0.00 0.00 0.00 90 1014.6
20260505063008 43 351 0.9 2.6 0.00 0.00 0.00 90 1014.8
20260505062505 43 0 0.0 1.7 0.00 0.00 0.00 90 1014.8
20260505062004 42 0 0.0 0.9 0.00 0.00 0.00 90 1014.7
20260505061508 42 0 0.0 0.0 0.00 0.00 0.00 90 1014.7
20260505061004 42 0 0.0 0.0 0.00 0.00 0.00 90 1014.7
20260505060007 41 0 0.0 1.7 0.00 0.00 0.00 90 1014.6
20260505055005 40 0 0.0 1.7 0.00 0.00 0.00 90 1014.6
20260505054507 40 160 0.9 1.7 0.00 0.00 0.00 90 1014.6
20260505054004 40 160 0.9 1.7 0.00 0.00 0.00 90 1014.6
20260505053504 39 0 0.0 1.7 0.00 0.00 0.00 90 1014.6
20260505053007 39 0 0.0 1.7 0.00 0.00 0.00 90 1014.6
20260505052504 39 0 0.0 1.7 0.00 0.00 0.00 90 1014.6
20260505051508 39 0 0.0 1.7 0.00 0.00 0.00 90 1014.5
20260505051004 39 0 0.0 1.7 0.00 0.00 0.00 90 1014.5
20260505050505 38 0 0.0 1.7 0.00 0.00 0.00 90 1014.5
20260505041508 38 0 0.0 1.7 0.00 0.00 0.00 90 1014.2
20260505041006 38 0 0.0 1.7 0.00 0.00 0.00 90 1014.2
20260505040504 39 0 0.0 0.9 0.00 0.00 0.00 90 1014.2
20260505040007 39 0 0.0 1.7 0.00 0.00 0.00 90 1014.1
20260505035004 39 0 0.0 0.0 0.00 0.00 0.00 90 1014.2
20260505034508 39 169 0.9 1.7 0.00 0.00 0.00 90 1014.2
20260505034005 39 169 0.9 1.7 0.00 0.00 0.00 90 1014.2
20260505033504 39 0 0.0 1.7 0.00 0.00 0.00 90 1014.2
20260505033008 40 0 0.0 1.7 0.00 0.00 0.00 90 1014.2
20260505032505 40 0 0.0 1.7 0.00 0.00 0.00 90 1014.2
20260505032004 40 0 0.0 0.0 0.00 0.00 0.00 90 1014.1
20260505031508 40 0 0.0 1.7 0.00 0.00 0.00 90 1014.1
20260505031005 40 158 0.9 2.6 0.00 0.00 0.00 90 1014.2
20260505030505 40 158 0.9 2.6 0.00 0.00 0.00 90 1014.3
20260505025504 40 0 0.0 2.6 0.00 0.00 0.00 90 1014.4
20260505025005 40 0 0.0 1.7 0.00 0.00 0.00 90 1014.4
20260505024506 40 0 0.0 1.7 0.00 0.00 0.00 90 1014.4
20260505024004 41 159 0.9 1.7 0.00 0.00 0.00 90 1014.4
20260505023008 41 158 0.9 2.6 0.00 0.00 0.00 90 1014.5
20260505022006 41 0 0.0 0.0 0.00 0.00 0.00 90 1014.5
20260505021507 41 0 0.0 0.0 0.00 0.00 0.00 90 1014.5
20260505021005 41 0 0.0 1.7 0.00 0.00 0.00 90 1014.5
20260505020505 41 158 0.9 2.6 0.00 0.00 0.00 90 1014.5
20260505020008 41 174 1.7 2.6 0.00 0.00 0.00 90 1014.5
20260505015504 41 188 0.9 2.6 0.00 0.00 0.00 90 1014.5
20260505015004 41 0 0.0 0.0 0.00 0.00 0.00 90 1014.5
20260505014507 42 0 0.0 0.0 0.00 0.00 0.00 90 1014.5
20260505014005 42 0 0.0 0.0 0.00 0.00 0.00 90 1014.6
20260505013504 42 0 0.0 1.7 0.00 0.00 0.00 90 1014.6
20260505013006 42 0 0.0 1.7 0.00 0.00 0.00 90 1014.7
20260505012504 42 0 0.0 0.9 0.00 0.00 0.00 90 1014.8
20260505011507 42 0 0.0 0.0 0.00 0.00 0.00 90 1014.8
20260505011005 42 0 0.0 0.0 0.00 0.00 0.00 90 1014.8
20260505010504 42 0 0.0 0.0 0.00 0.00 0.00 90 1014.8
20260505010007 42 0 0.0 0.0 0.00 0.00 0.00 90 1014.9
20260505005504 42 0 0.0 0.0 0.00 0.00 0.00 90 1014.9
20260505005005 42 0 0.0 0.0 0.00 0.00 0.00 90 1014.9
20260505004507 42 0 0.0 0.0 0.00 0.00 0.00 90 1014.9
20260505004005 42 0 0.0 0.0 0.00 0.00 0.00 90 1015.0
20260505003505 43 0 0.0 0.0 0.00 0.00 0.00 90 1014.9
20260505003007 43 0 0.0 0.0 0.00 0.00 0.00 90 1015.0
20260505002504 43 0 0.0 0.0 0.00 0.00 0.00 90 1015.0
20260505002003 43 0 0.0 0.0 0.00 0.00 0.00 90 1015.1
20260505001507 43 0 0.0 0.0 0.00 0.00 0.00 90 1015.1
20260505001004 43 0 0.0 0.0 0.00 0.00 0.00 89 1015.2
20260505000505 44 0 0.0 0.0 0.00 0.00 0.00 89 1015.1
20260505000007 44 0 0.0 0.0 0.00 0.00 0.00 89 1015.2
20260504235505 44 0 0.0 0.9 0.00 0.00 0.00 89 1015.2
20260504235004 44 0 0.0 0.9 0.00 0.00 0.00 88 1015.3
20260504234506 44 0 0.0 0.0 0.00 0.00 0.00 88 1015.3
20260504234004 45 0 0.0 0.0 0.00 0.00 0.00 88 1015.3
20260504233503 45 0 0.0 0.0 0.00 0.00 0.00 87 1015.2
20260504232504 45 0 0.0 2.6 0.00 0.00 0.00 87 1015.2
20260504231506 46 0 0.0 3.5 0.00 0.00 0.00 86 1015.2
20260504230011 47 0 0.0 1.7 0.00 0.00 0.00 84 1015.2
20260504225504 47 286 0.9 3.5 0.00 0.00 0.00 84 1015.2
20260504225004 47 289 1.7 5.2 0.00 0.00 0.00 84 1015.2
20260504224506 47 288 1.7 5.2 0.00 0.00 0.00 84 1015.2
20260504224005 47 286 0.9 3.5 0.00 0.00 0.00 84 1015.3
20260504223503 47 0 0.0 2.6 0.00 0.00 0.00 85 1015.3
20260504223007 48 0 0.0 1.7 0.00 0.00 0.00 84 1015.4
20260504222504 48 0 0.0 0.0 0.00 0.00 0.00 83 1015.4
20260504221508 49 0 0.0 0.0 0.00 0.00 0.00 82 1015.4
20260504221005 50 0 0.0 2.6 0.00 0.00 0.00 81 1015.4
20260504220505 50 0 0.0 2.6 0.00 0.00 0.00 80 1015.4
20260504220006 50 0 0.0 1.7 0.00 0.00 0.00 82 1015.4
20260504215504 50 0 0.0 0.0 0.00 0.00 0.00 82 1015.4
20260504214507 51 0 0.0 0.0 0.00 0.00 0.00 82 1015.4
20260504214004 51 0 0.0 0.9 0.00 0.00 0.00 81 1015.4
20260504213504 51 0 0.0 2.6 0.00 0.00 0.00 80 1015.4
20260504213007 51 308 0.9 3.5 0.00 0.00 0.00 80 1015.4
20260504212503 51 304 0.9 3.5 0.00 0.00 0.00 80 1015.4
20260504212004 51 301 1.7 3.5 0.00 0.00 0.00 80 1015.4
20260504211005 51 308 0.9 2.6 0.00 0.00 0.00 80 1015.5
20260504210504 51 0 0.0 2.6 0.00 0.00 0.00 81 1015.5
20260504205503 52 323 1.7 4.3 0.00 0.00 0.00 81 1015.4
20260504205005 52 313 2.6 4.3 0.00 0.00 0.00 80 1015.5
20260504204508 52 308 2.6 4.3 0.00 0.00 0.00 80 1015.4
20260504204003 52 311 2.6 6.1 0.00 0.00 0.00 80 1015.4
20260504203504 52 306 2.6 6.1 0.00 0.00 0.00 80 1015.4
20260504203007 52 301 2.6 6.1 0.00 0.00 0.00 80 1015.4
20260504202503 52 295 3.5 7.0 0.00 0.00 0.00 79 1015.3
20260504202004 52 297 3.5 7.0 0.00 0.00 0.00 79 1015.3
20260504201004 53 300 3.5 7.8 0.00 0.00 0.00 80 1015.2
20260504200504 53 303 4.3 9.6 0.00 0.00 0.00 80 1015.2
20260504195504 53 309 6.1 12.2 0.00 0.00 0.00 79 1015.1
20260504195004 53 311 7.0 12.2 0.00 0.00 0.00 79 1015.1
20260504194508 53 312 6.1 12.2 0.00 0.00 0.00 80 1015.1
20260504194003 54 309 6.1 10.4 0.00 0.00 0.00 80 1014.9
20260504193504 54 305 6.1 10.4 0.00 0.00 0.00 80 1014.8
20260504193006 54 301 5.2 10.4 0.00 0.00 0.00 79 1014.8
20260504192503 54 302 5.2 10.4 0.00 0.00 0.00 79 1014.8
20260504192004 54 305 6.1 10.4 0.00 0.00 0.00 79 1014.7
20260504191506 55 308 5.2 9.6 0.00 0.00 0.00 79 1014.7
20260504191003 55 308 4.3 9.6 0.00 0.00 0.00 79 1014.6
20260504190504 55 302 2.6 7.8 0.00 0.00 0.00 80 1014.6
20260504190008 55 285 1.7 6.1 0.00 0.00 0.00 80 1014.6
20260504185503 55 243 1.7 5.2 0.00 0.00 0.00 83 1014.6
20260504185004 55 190 1.7 5.2 0.00 0.00 0.00 82 1014.6
20260504184003 55 210 0.9 5.2 0.00 0.00 0.00 81 1014.5
20260504183505 55 205 1.7 5.2 0.00 0.00 0.00 80 1014.5
20260504183006 56 200 1.7 5.2 0.00 0.00 0.00 79 1014.5
20260504182505 56 211 0.9 3.5 0.00 0.00 0.00 79 1014.5
20260504182003 56 222 0.9 5.2 0.00 0.00 0.00 79 1014.4
20260504181508 56 225 0.9 5.2 0.00 0.00 0.00 79 1014.4
20260504181003 56 226 0.9 3.5 0.00 0.00 0.00 79 1014.4
20260504180503 56 0 0.0 3.5 0.00 0.00 0.00 78 1014.4
20260504180007 56 0 0.0 2.6 0.00 0.00 0.00 78 1014.4
20260504175505 56 0 0.0 0.0 0.00 0.00 0.00 79 1014.4
20260504175005 57 223 0.9 3.5 0.00 0.00 0.00 78 1014.5
20260504174004 57 175 0.9 6.1 0.00 0.00 0.00 78 1014.5
20260504173006 57 218 0.9 3.5 0.00 0.00 0.00 78 1014.6
20260504172504 57 213 0.9 3.5 0.00 0.00 0.00 78 1014.5
20260504172003 56 211 0.9 3.5 0.00 0.00 0.00 80 1014.6
20260504171508 56 218 0.9 3.5 0.00 0.00 0.00 79 1014.6
20260504171004 56 219 0.9 3.5 0.00 0.00 0.00 80 1014.7
20260504170506 56 216 0.9 2.6 0.00 0.00 0.00 81 1014.7
20260504150504 57 232 0.9 4.3 0.00 0.00 0.00 76 1014.8
20260504141003 56 208 1.7 4.3 0.00 0.00 0.00 78 1015.1
20260504130503 58 261 0.9 3.5 0.00 0.00 0.00 72 1015.1
20260504110505 56 0 0.0 1.7 0.00 0.00 0.00 78 1015.3